[[{"header":{"parameterUnit":"m.s-1","parameterCategory":1,"la1":30.2991,"la2":30.254,"lo1":-89.0895,"lo2":-89.0444,"dy":0.0017,"dx":0.0017,"nx":28,"ny":28,"refTime":"2024-02-16T09:00:00:Z","depth":0,"parameterNumber":2,"parameterNumberName":"U-component_of_WINDS"},"data":[0,0,0,0,0,0,0,0,0,0,0,0,0,0,0,0,0,0,0,0,0,0,0,0,0,0,0,0,0,0,0,0,0,0,0,0,0,0,0,0,0,0,0,0,0,0,0,0,0,0,0,0,0,0,0,0,0,0,0.7734,0.7735,0,0.7843,0.7844,0.7846,0.7877,0.7876,0.7875,0.7875,0.7988,0.7992,0.7995,0,0,0,0,0,0,0,0,0,0,0,0,0,0.7554,0.7557,0.7734,0.7735,0.7737,0.7843,0.7845,0.7846,0.7877,0.7876,0.7875,0.7875,0.7987,0.7991,0.7996,0,0,0,0,0,0,0,0,0,0,0,0,0,0.7644,0.7558,0.7734,0.7765,0.7769,0.7843,0.7845,0.7846,0.7877,0.7876,0.7875,0.7874,0.7986,0.7991,0.7996,0.8048,0,0,0.8013,0.8015,0,0,0,0,0,0,0,0,0.7639,0.7651,0.7759,0.7763,0.7767,0.7845,0.7823,0.7914,0.7877,0.7836,0.7875,0.7874,0.7941,0.795,0.7973,0.8053,0.8058,0.8013,0.8016,0.8019,0.802,0,0,0,0,0,0,0,0.7633,0.7646,0.7777,0.776,0.7765,0.7774,0.7786,0.784,0.7892,0.7839,0.7842,0.7854,0.7944,0.7968,0.7976,0.8059,0.8013,0.8018,0.8021,0.8023,0.8188,0.8189,0,0,0,0,0,0,0.7621,0.7641,0.7774,0.778,0.77,0.7778,0.7791,0.7821,0.7892,0.7902,0.7855,0.7855,0.7959,0.797,0.798,0.8045,0.8019,0.8024,0.8027,0.8187,0.8188,0.819,0,0,0,0,0,0,0.7617,0.7633,0.7769,0.7711,0.7729,0.7782,0.7815,0.7824,0.7848,0.7904,0.7913,0.787,0.7959,0.7972,0.8031,0.805,0.8026,0.8031,0.8186,0.8188,0.8189,0.8176,0,0,0,0,0,0,0.7612,0.7631,0.765,0.7712,0.7732,0.7817,0.7817,0.7827,0.7857,0.7858,0.792,0.793,0.7959,0.8023,0.8036,0.8057,0.8035,0.8184,0.8187,0.8189,0.8175,0.8177,0.8179,0,0,0,0,0,0.7605,0.7643,0.7651,0.7667,0.7758,0.7818,0.783,0.7863,0.7858,0.7879,0.7915,0.7928,0.8046,0.8028,0.8044,0.8066,0.8183,0.8186,0.8188,0.8174,0.8177,0.8179,0,0,0,0,0,0,0.7582,0.7651,0.7661,0.772,0.7763,0.7823,0.785,0.7865,0.7911,0.791,0.7949,0.7963,0.8019,0.8048,0.8028,0.812,0.8115,0.8121,0.8099,0.8102,0.8104,0.8095,0.804,0,0,0,0,0,0.7584,0.7627,0.7685,0.7731,0.7752,0.7797,0.7825,0.7846,0.7893,0.7912,0.7952,0.7997,0.8045,0.8075,0.8121,0.818,0.8194,0.8203,0.8205,0.8207,0.8211,0.8245,0.825,0.8198,0.8198,0.8198,0,0,0.7588,0.7631,0.7656,0.7727,0.7763,0.7808,0.7812,0.7859,0.7892,0.7919,0.7976,0.8008,0.8061,0.8119,0.8147,0.8146,0.8229,0.821,0.821,0.8214,0.8248,0.8253,0.8257,0.82,0.82,0.82,0,0,0.7618,0.7654,0.7697,0.7733,0.7788,0.7818,0.7828,0.7887,0.7908,0.7967,0.7988,0.8028,0.8109,0.8146,0.8176,0.8221,0.8235,0.8235,0.8245,0.8278,0.8282,0.8286,0.8302,0.8308,0.8239,0.8239,0.8239,0,0.7616,0.7683,0.7717,0.7763,0.7794,0.782,0.7864,0.7897,0.7964,0.7986,0.7983,0.8085,0.8123,0.8191,0.8202,0.8225,0.8238,0.8228,0.8278,0.8283,0.8287,0.8303,0.8309,0.8239,0.8239,0.8239,0.8239,0,0.7678,0.7725,0.7752,0.7816,0.7851,0.7895,0.7937,0.7968,0.7987,0.8017,0.8077,0.8123,0.8179,0.8197,0.8216,0.8269,0.8266,0.8271,0.8266,0.8291,0.8307,0.8313,0.8239,0.8239,0.8239,0.8239,0,0,0.7696,0.7779,0.7789,0.7818,0.7881,0.7918,0.7964,0.8019,0.8045,0.8091,0.8131,0.8199,0.8204,0.8237,0.8261,0.8289,0.8323,0.829,0.8292,0.8295,0.8384,0.838,0.8386,0.8332,0.8334,0.8335,0.8379,0,0.7734,0.7817,0.7849,0.7917,0.796,0.7986,0.8027,0.807,0.81,0.8142,0.8175,0.8223,0.8225,0.8246,0.8275,0.8312,0.8341,0.8309,0.837,0.8372,0.8356,0.8395,0.8391,0.8431,0.8386,0.8387,0.8388,0,0.7789,0.7835,0.7907,0.7965,0.7984,0.802,0.8074,0.8113,0.8163,0.8183,0.8221,0.8243,0.8293,0.8285,0.8355,0.8333,0.836,0.8382,0.8384,0.8391,0.8381,0.8403,0.8444,0.845,0.8398,0.8397,0.8396,0,0.7795,0.7875,0.7929,0.7953,0.8022,0.8047,0.8077,0.8126,0.8157,0.8204,0.8225,0.8278,0.8307,0.8347,0.8383,0.8374,0.845,0.8445,0.8468,0.8468,0.8483,0.8481,0.8529,0.8501,0.85,0.85,0.85,0,0.7834,0.7877,0.7932,0.7965,0.8015,0.8052,0.81,0.8132,0.8175,0.8215,0.8241,0.8279,0.8324,0.8367,0.8396,0.8449,0.8462,0.848,0.8487,0.8478,0.8476,0.8496,0.8494,0.8502,0.8502,0.8501,0.8501,0,0.7849,0.7888,0.7948,0.8008,0.8025,0.8058,0.811,0.8144,0.8175,0.8226,0.824,0.829,0.8342,0.8382,0.845,0.8469,0.8527,0.8534,0.8509,0.8513,0.8534,0.8532,0.8597,0.8607,0.8571,0.8571,0.8572,0,0.7871,0.7904,0.7969,0.7997,0.8027,0.8073,0.8105,0.8143,0.8176,0.8236,0.8262,0.8316,0.8362,0.8444,0.8487,0.8539,0.8548,0.8568,0.8556,0.8546,0.8549,0.8546,0.855,0.8569,0.8569,0.8569,0.8569,0,0.7906,0.7924,0.7969,0.8021,0.8059,0.8102,0.8146,0.8168,0.8214,0.825,0.8304,0.8339,0.8408,0.8462,0.8519,0.8551,0.8568,0.8573,0.8581,0.8572,0.8556,0.8565,0.8513,0.8571,0.8571,0.8571,0.8571,0.8571,0.7925,0.7957,0.8007,0.8057,0.8094,0.8134,0.8168,0.8205,0.825,0.8309,0.833,0.8385,0.8435,0.8513,0.8546,0.859,0.8591,0.8602,0.8605,0.8608,0.8607,0.8549,0.8601,0.8601,0.8601,0.8601,0.8601,0,0.7962,0.7996,0.8041,0.8101,0.8141,0.8154,0.8203,0.8235,0.8283,0.8329,0.8373,0.8435,0.8487,0.8534,0.8589,0.8616,0.8625,0.8629,0.8627,0.8634,0.8603,0.8591,0.862,0.862,0.862,0.862,0.862,0.862,0.7986,0.804,0.8063,0.8136,0.817,0.8224,0.8251,0.8289,0.8325,0.8393,0.8437,0.8467,0.8513,0.8572,0.8621,0.8633,0.8652,0.8654,0.8668,0.8639,0.8636,0.8634,0.8622,0.8658,0.8658,0.8695,0.8696,0.8696]},{"header":{"parameterUnit":"m.s-1","parameterCategory":1,"la1":30.2991,"la2":30.254,"lo1":-89.0895,"lo2":-89.0444,"dy":0.0017,"dx":0.0017,"nx":28,"ny":28,"refTime":"2024-02-16T09:00:00:Z","depth":0,"parameterNumber":3,"parameterNumberName":"V-component_of_WINDS"},"data":[0,0,0,0,0,0,0,0,0,0,0,0,0,0,0,0,0,0,0,0,0,0,0,0,0,0,0,0,0,0,0,0,0,0,0,0,0,0,0,0,0,0,0,0,0,0,0,0,0,0,0,0,0,0,0,0,0,0,-0.6754,-0.6754,0,-0.6741,-0.6741,-0.6741,-0.6737,-0.6737,-0.6737,-0.6737,-0.6723,-0.6723,-0.6722,0,0,0,0,0,0,0,0,0,0,0,0,0,-0.6777,-0.6777,-0.6754,-0.6754,-0.6754,-0.6741,-0.6741,-0.6741,-0.6737,-0.6737,-0.6737,-0.6737,-0.6723,-0.6723,-0.6722,0,0,0,0,0,0,0,0,0,0,0,0,0,-0.6766,-0.6777,-0.6754,-0.675,-0.675,-0.6741,-0.6741,-0.6741,-0.6737,-0.6737,-0.6737,-0.6737,-0.6723,-0.6723,-0.6722,-0.6716,0,0,-0.672,-0.672,0,0,0,0,0,0,0,0,-0.6767,-0.6765,-0.6751,-0.6751,-0.675,-0.6741,-0.6744,-0.6733,-0.6737,-0.6742,-0.6737,-0.6737,-0.6729,-0.6728,-0.6725,-0.6716,-0.6715,-0.672,-0.672,-0.6719,-0.6719,0,0,0,0,0,0,0,-0.6767,-0.6766,-0.6749,-0.6751,-0.675,-0.675,-0.6748,-0.6742,-0.6735,-0.6741,-0.6741,-0.6739,-0.6729,-0.6726,-0.6725,-0.6715,-0.672,-0.672,-0.6719,-0.6719,-0.6702,-0.6702,0,0,0,0,0,0,-0.6769,-0.6766,-0.675,-0.6749,-0.6759,-0.6749,-0.6748,-0.6744,-0.6735,-0.6734,-0.6739,-0.6739,-0.6727,-0.6725,-0.6724,-0.6718,-0.6719,-0.6719,-0.6718,-0.6702,-0.6702,-0.6702,0,0,0,0,0,0,-0.6769,-0.6767,-0.675,-0.6758,-0.6755,-0.6749,-0.6744,-0.6743,-0.674,-0.6734,-0.6732,-0.6738,-0.6727,-0.6725,-0.6719,-0.6717,-0.6719,-0.6718,-0.6702,-0.6702,-0.6702,-0.6704,0,0,0,0,0,0,-0.677,-0.6768,-0.6765,-0.6757,-0.6755,-0.6744,-0.6744,-0.6743,-0.6739,-0.6739,-0.6732,-0.673,-0.6727,-0.672,-0.6718,-0.6716,-0.6717,-0.6702,-0.6702,-0.6702,-0.6704,-0.6704,-0.6704,0,0,0,0,0,-0.6771,-0.6766,-0.6765,-0.6763,-0.6751,-0.6744,-0.6743,-0.6739,-0.6739,-0.6737,-0.6733,-0.6731,-0.6718,-0.6719,-0.6717,-0.6715,-0.6702,-0.6702,-0.6702,-0.6704,-0.6704,-0.6704,0,0,0,0,0,0,-0.6772,-0.6764,-0.6763,-0.6756,-0.6751,-0.6744,-0.674,-0.6739,-0.6733,-0.6733,-0.6729,-0.6727,-0.6721,-0.6718,-0.6719,-0.671,-0.671,-0.6709,-0.6712,-0.6712,-0.6712,-0.6713,-0.6717,0,0,0,0,0,-0.6772,-0.6767,-0.676,-0.6754,-0.6752,-0.6747,-0.6743,-0.6741,-0.6735,-0.6733,-0.6729,-0.6724,-0.6719,-0.6715,-0.671,-0.6704,-0.6702,-0.6702,-0.6702,-0.6702,-0.6701,-0.6699,-0.6698,-0.6701,-0.6701,-0.6701,0,0,-0.677,-0.6766,-0.6762,-0.6754,-0.675,-0.6745,-0.6745,-0.6739,-0.6736,-0.6732,-0.6726,-0.6723,-0.6717,-0.6711,-0.6708,-0.6708,-0.67,-0.6701,-0.6701,-0.6701,-0.6698,-0.6698,-0.6698,-0.6701,-0.6701,-0.6701,0,0,-0.6766,-0.6761,-0.6756,-0.6752,-0.6747,-0.6744,-0.6742,-0.6736,-0.6734,-0.6728,-0.6725,-0.6722,-0.6713,-0.6709,-0.6706,-0.6702,-0.67,-0.6701,-0.67,-0.6698,-0.6698,-0.6697,-0.6697,-0.6696,-0.67,-0.67,-0.67,0,-0.6765,-0.6757,-0.6754,-0.6749,-0.6745,-0.6743,-0.6738,-0.6735,-0.6728,-0.6726,-0.6726,-0.6716,-0.6712,-0.6705,-0.6705,-0.6702,-0.6701,-0.6701,-0.6698,-0.6698,-0.6697,-0.6697,-0.6696,-0.67,-0.67,-0.67,-0.67,0,-0.6756,-0.6751,-0.6748,-0.6742,-0.6738,-0.6733,-0.673,-0.6727,-0.6725,-0.6723,-0.6717,-0.6713,-0.6707,-0.6706,-0.6703,-0.6699,-0.6699,-0.6699,-0.6699,-0.6697,-0.6696,-0.6696,-0.6701,-0.6701,-0.67,-0.67,0,0,-0.675,-0.6744,-0.6743,-0.674,-0.6735,-0.6731,-0.6727,-0.6722,-0.672,-0.6715,-0.6712,-0.6705,-0.6705,-0.6702,-0.67,-0.6698,-0.6696,-0.6698,-0.6698,-0.6698,-0.6692,-0.6692,-0.6692,-0.6695,-0.6695,-0.6695,-0.6693,0,-0.6745,-0.6737,-0.6735,-0.6728,-0.6724,-0.6723,-0.6719,-0.6716,-0.6714,-0.671,-0.6708,-0.6703,-0.6703,-0.6702,-0.67,-0.6697,-0.6695,-0.6697,-0.6692,-0.6692,-0.6694,-0.6691,-0.6691,-0.6689,-0.6692,-0.6692,-0.6692,0,-0.6737,-0.6733,-0.6726,-0.6723,-0.6721,-0.6717,-0.6714,-0.671,-0.6707,-0.6706,-0.6703,-0.6701,-0.6698,-0.6699,-0.6694,-0.6695,-0.6694,-0.6692,-0.6692,-0.6691,-0.6692,-0.669,-0.6688,-0.6688,-0.6692,-0.6692,-0.6692,0,-0.6733,-0.6727,-0.6722,-0.672,-0.6716,-0.6714,-0.6712,-0.6709,-0.6706,-0.6703,-0.6702,-0.6698,-0.6696,-0.6694,-0.6692,-0.6692,-0.6688,-0.6688,-0.6687,-0.6687,-0.6685,-0.6685,-0.6682,-0.6684,-0.6684,-0.6684,-0.6684,0,-0.6727,-0.6723,-0.6721,-0.6718,-0.6714,-0.6712,-0.6708,-0.6706,-0.6704,-0.6701,-0.67,-0.6697,-0.6695,-0.6692,-0.6691,-0.6688,-0.6687,-0.6686,-0.6685,-0.6686,-0.6686,-0.6684,-0.6684,-0.6684,-0.6684,-0.6684,-0.6684,0,-0.6722,-0.672,-0.6715,-0.6712,-0.6712,-0.6709,-0.6706,-0.6704,-0.6702,-0.6699,-0.6698,-0.6696,-0.6693,-0.6691,-0.6687,-0.6686,-0.6683,-0.6682,-0.6684,-0.6683,-0.6682,-0.6682,-0.6678,-0.6678,-0.668,-0.668,-0.668,0,-0.6718,-0.6715,-0.6712,-0.671,-0.6709,-0.6706,-0.6704,-0.6702,-0.67,-0.6698,-0.6696,-0.6693,-0.669,-0.6686,-0.6684,-0.6681,-0.6681,-0.668,-0.668,-0.6681,-0.6681,-0.6681,-0.6681,-0.6679,-0.6679,-0.6679,-0.6679,0,-0.6711,-0.6711,-0.6708,-0.6705,-0.6703,-0.6701,-0.6699,-0.6698,-0.6696,-0.6694,-0.6692,-0.669,-0.6687,-0.6684,-0.6682,-0.668,-0.668,-0.6679,-0.6679,-0.6679,-0.668,-0.668,-0.6683,-0.6679,-0.6679,-0.6679,-0.6679,-0.6679,-0.6706,-0.6704,-0.6702,-0.6699,-0.6698,-0.6697,-0.6694,-0.6693,-0.6691,-0.6688,-0.6688,-0.6686,-0.6684,-0.6681,-0.668,-0.6678,-0.6678,-0.6677,-0.6677,-0.6677,-0.6677,-0.6681,-0.6677,-0.6677,-0.6677,-0.6677,-0.6677,0,-0.6699,-0.6698,-0.6696,-0.6694,-0.6692,-0.6693,-0.6691,-0.6689,-0.6687,-0.6686,-0.6684,-0.6682,-0.668,-0.6678,-0.6677,-0.6675,-0.6675,-0.6675,-0.6675,-0.6675,-0.6677,-0.6677,-0.6675,-0.6675,-0.6675,-0.6675,-0.6675,-0.6675,-0.6695,-0.6692,-0.6692,-0.6688,-0.6688,-0.6685,-0.6684,-0.6683,-0.6682,-0.668,-0.6678,-0.6678,-0.6677,-0.6675,-0.6674,-0.6674,-0.6673,-0.6673,-0.6673,-0.6674,-0.6674,-0.6675,-0.6675,-0.6673,-0.6673,-0.6671,-0.6671,-0.6671]}]]